Location: La Brionne
(46.1728°N, 1.7849°E)
Time: 13:13:56
(UTC+00:00)

Cosmos 2219 Rocket - Pass Details

Date: 26 October 2021
Orbit: 826 x 848 km, 71.0° (Epoch: 01 December)

Event Time Altitude Azimuth Distance (km) Brightness Sun altitude
Exits shadow 04:28:36 - 334° (NNW) 2,883 4.8 -20.8°
Reaches altitude 10° 04:29:42 10° 335° (NNW) 2,467 4.4 -20.6°
Maximum altitude 04:35:23 81° 63° (ENE) 859 2.2 -19.6°
Drops below altitude 10° 04:41:03 10° 151° (SSE) 2,463 5.0 -18.6°
Sets 04:43:30 0° 153° (SSE) 3,396 5.7 -18.2°
